Location: Anjeux
(47.8815°N, 6.2076°E)
Time: 14:03:47
(UTC+00:00)

Cosmos 2251 Rocket - Pass Details

Date: 05 March 2021
Orbit: 765 x 792 km, 74.0° (Epoch: 17 April)

Event Time Altitude Azimuth Distance (km) Brightness Sun altitude
Exits shadow 04:23:56 - 197° (SSW) 2,533 5.9 -18.2°
Reaches altitude 10° 04:24:27 10° 197° (SSW) 2,334 5.7 -18.1°
Maximum altitude 04:29:46 82° 111° (ESE) 801 3.6 -17.3°
Drops below altitude 10° 04:35:09 10° 24° (NNE) 2,365 6.5 -16.4°
Sets 04:37:34 0° 24° (NNE) 3,300 7.3 -16.0°
